User: anonymous   Login
Location: Heilwood
(40.6210°N, 78.9150°W)
Time: 06:53:20
(UTC-05:00)
Language:

Iridium 4 Rocket - Orbit

View from above orbital plane
View from above orbital plane
View from above satellite
View from above satellite

Ground track
Ground track

The orbit data is extracted from the following two-line orbital elements,

1 24797U 97020F   16342.81707198  .00000210  00000-0  40324-4 0  9994
2 24797  86.8975  63.4676 0223830 235.0371 244.1204 14.43931590 30330
Epoch (UTC): 07 December 2016 19:36:35
Eccentricity: 0.0223830
inclination: 86.8975°
perigee height: 586 km
apogee height: 905 km
right ascension of ascending node: 63.4676°
argument of perigee: 235.0371°
revolutions per day: 14.43931590
mean anomaly at epoch: 244.1204°
orbit number at epoch: 3033

The dashed part of the orbit path shows where the satellite is in the earth's shadow,  

DLR